Weather History for Whiteman AFB, MO

Change the Weather History Date:

Tuesday, April 24, 2012

  Actual Average Record
Temperature  
Mean Temperature 60 °F -  
Max Temperature 80 °F 66 °F 80 °F (2012)
Min Temperature 41 °F 47 °F 32 °F (2013)
Degree Days  
Heating Degree Days 5    
Growing Degree Days 10 (Base 50)    
Moisture  
Dew Point 50 °F    
Average Humidity 69    
Maximum Humidity 94    
Minimum Humidity 44    
Precipitation  
Precipitation 0.00 in - - ()
Sea Level Pressure  
Sea Level Pressure 29.77 in    
Wind  
Wind Speed 10 mph (SSW)    
Max Wind Speed 22 mph    
Max Gust Speed 29 mph    
Visibility 10 miles    
Events      
Averages and records for this station are not official NWS values.
T = Trace of Precipitation, MM = Missing Value Source: NWS Daily Summary

Daily Weather History Graph

Daily Weather History Graph

Search for Another Location

Airport:

Trip Planner

Search our weather history database for the weather conditions in past years. The results will help you decide how hot, cold, wet, or windy it might be!

Date:

Astronomy

Apr. 24, 2012 Rise Set
Actual Time 6:24 AM CDT 8:00 PM CDT
Civil Twilight 5:56 AM CDT 8:28 PM CDT
Nautical Twilight 5:22 AM CDT 9:02 PM CDT
Astronomical Twilight 4:46 AM CDT 9:38 PM CDT
Moon 8:22 AM CDT (4/24) 11:19 PM CDT (4/24)
Length of Visible Light 14h 31m
Length of Day
13h 35m
Waxing Crescent, 10% of the Moon is Illuminated
Apr 24
Waxing Crescent
Apr 29
First Quarter
May 5
Full
May 12
Last Quarter
May 20
New

Hourly Weather History & Observations

Time (CDT) Temp. Windchill Dew Point Humidity Pressure Visibility Wind Dir Wind Speed Gust Speed Precip Events Conditions
12:55 AM 44.2 °F 41.8 °F 40.3 °F 86% 29.97 in 10.0 mi South 4.6 mph - N/A   Clear
1:55 AM 41.9 °F 37.5 °F 40.3 °F 94% 29.95 in 10.0 mi SSW 6.9 mph - N/A   Clear
2:55 AM 42.4 °F 39.6 °F 39.2 °F 88% 29.94 in 10.0 mi SSW 4.6 mph - N/A   Clear
3:55 AM 43.5 °F 40.1 °F 41.4 °F 92% 29.92 in 10.0 mi SSW 5.8 mph - N/A   Clear
4:55 AM 43.0 °F 39.5 °F 41.4 °F 94% 29.91 in 10.0 mi SSW 5.8 mph - N/A   Clear
5:55 AM 43.3 °F 38.6 °F 40.8 °F 91% 29.90 in 10.0 mi South 8.1 mph - N/A   Clear
6:55 AM 44.8 °F 39.4 °F 42.1 °F 90% 29.89 in 10.0 mi South 10.4 mph - N/A   Clear
7:55 AM 50.7 °F - 45.0 °F 81% 29.89 in 10.0 mi SSW 11.5 mph - N/A   Clear
8:55 AM 57.9 °F - 46.0 °F 65% 29.87 in 10.0 mi SSW 11.5 mph - N/A   Clear
9:55 AM 63.7 °F - 46.0 °F 53% 29.84 in 10.0 mi SSW 19.6 mph - N/A   Clear
10:55 AM 68.4 °F - 47.8 °F 48% 29.81 in 10.0 mi SW 21.9 mph 28.8 mph N/A   Clear
11:55 AM 71.2 °F - 49.5 °F 46% 29.78 in 10.0 mi SSW 20.7 mph - N/A   Partly Cloudy
12:55 PM 73.9 °F - 52.2 °F 46% 29.75 in 10.0 mi SW 19.6 mph - N/A   Partly Cloudy
1:55 PM 77.0 °F - 53.8 °F 44% 29.70 in 10.0 mi SSW 19.6 mph - N/A   Clear
2:55 PM 74.8 °F - 53.2 °F 47% 29.69 in 10.0 mi SW 18.4 mph - N/A   Partly Cloudy
3:55 PM 75.6 °F - 55.9 °F 50% 29.67 in 10.0 mi SSW 13.8 mph - N/A   Clear
4:55 PM 76.3 °F - 57.6 °F 52% 29.64 in 10.0 mi SW 11.5 mph - N/A   Clear
5:55 PM 78.8 °F - 59.0 °F 51% 29.62 in 10.0 mi SSW 11.5 mph - N/A   Partly Cloudy
6:55 PM 79.0 °F - 57.7 °F 48% 29.61 in 10.0 mi SW 12.7 mph - N/A   Clear
7:55 PM 74.8 °F - 57.9 °F 55% 29.62 in 10.0 mi SSW 11.5 mph - N/A   Clear
8:55 PM 66.4 °F - 58.1 °F 75% 29.62 in 10.0 mi South 8.1 mph - N/A   Clear
9:55 PM 65.7 °F - 59.2 °F 80% 29.62 in 10.0 mi SSE 5.8 mph - N/A   Clear
10:55 PM 65.3 °F - 59.9 °F 83% 29.62 in 10.0 mi South 6.9 mph - N/A   Partly Cloudy
11:55 PM 65.3 °F - 61.0 °F 86% 29.62 in 10.0 mi SSW 9.2 mph - N/A   Mostly Cloudy